Regional Weather Roundup
Issued by NWS

Home | Current Version | Previous Version | Text Only | Print | Product List | Glossary On
Versions: 1 2 3 4 5 6 7 8 9 10 11 12 13 14 15 16 17 18 19 20 21 22 23 24 25 26 27 28 29 30 31 32 33 34 35 36 37 38 39 40 41 42 43 44 45 46 47 48 49 50
000
ASUS43 KMKX 280221
RWRWI

WISCONSIN REGIONAL WEATHER ROUNDUP
NATIONAL WEATHER SERVICE MILWAUKEE/SULLIVAN WI
900 PM CDT MON JUL 27 2015

NOTE: "FAIR" INDICATES FEW OR NO CLOUDS BELOW 12,000 FEET WITH NO
SIGNIFICANT WEATHER AND/OR OBSTRUCTIONS TO VISIBILITY.

WIZ001-002-006>008-014>016-023>028-280300-
NORTHWEST WISCONSIN

CITY           SKY/WX    TMP DP  RH WIND       PRES   REMARKS
SUPERIOR ARPT  MOCLDY    71  68  92 CALM      29.92S
ASHLAND        CLEAR     67  63  87 CALM      29.96R
HAYWARD        CLEAR     76  62  62 SE3       29.98R
SIREN          PTCLDY    78  67  68 SE6       29.94S HX  80
CUMBERLAND     CLEAR     73  64  73 CALM      29.96S
RICE LAKE      PTCLDY    76  66  69 SE5       29.97S
CHETEK         MOCLDY    78  68  72 E5        29.96S
LADYSMITH      CLEAR     76  65  70 E3        30.00S
EAU CLAIRE     CLEAR     79  68  69 SE6       29.94S HX  81
MENOMONIE      PTCLDY    76  70  82 SE5       29.94S
NEW RICHMOND   CLEAR     75  68  79 E5        29.94S HAZE
OSCEOLA        CLEAR     77  70  78 E7        29.95S
$$

WIZ003>005-009-010-017-018-280300-
NORTH CENTRAL WISCONSIN

CITY           SKY/WX    TMP DP  RH WIND       PRES   REMARKS
MANITOWISH WTR CLEAR     69  64  83 S5        30.02R
ARBOR VITAE    CLEAR     77  63  62 CALM      30.03R
WOODRUFF       CLEAR     77  63  62 CALM      30.03R
RHINELANDER    CLEAR     75  61  61 SE3       30.04S
EAGLE RIVER    CLEAR     73  59  61 S3        30.03S
LAND O LAKES   CLEAR     69  62  77 CALM      30.04S
PHILLIPS       CLEAR     70  64  83 E3        30.00S
TOMAHAWK       PTCLDY    70  61  73 CALM      30.03R HAZE
MEDFORD        PTCLDY    72  64  77 SE3       30.01S
MERRILL        NOT AVBL
$$

WIZ029-030-035-036-043>047-280300-
CENTRAL WISCONSIN

CITY           SKY/WX    TMP DP  RH WIND       PRES   REMARKS
WAUSAU         MOCLDY    77  64  64 E6        30.00R
MOSINEE        CLEAR     73  64  73 E5        30.02R
MARSHFIELD     MOCLDY    76  63  64 SE5       30.00R
STEVENS POINT  MOCLDY    72  64  75 CALM      30.02R
WAUPACA        MOCLDY    77  65  65 CALM      30.00R
WAUTOMA        MOCLDY    73  64  73 CALM      30.01R
WISC RAPIDS    MOCLDY    77  61  57 SE6       30.01R
CAMP DOUGLAS   PTCLDY    72  72 100 E6        29.97S
$$

WIZ011>013-019>022-031-037>040-048>050-280300-
NORTHEAST WISCONSIN

CITY           SKY/WX    TMP DP  RH WIND       PRES   REMARKS
ANTIGO         PTCLDY    69  63  81 CALM      30.04R
SHAWANO        PTCLDY    76  65  68 SE5       30.00R
OCONTO         CLEAR     71  69  93 SE3       29.99F
STURGEON BAY   CLEAR     72  59  64 S5        30.04S
GREEN BAY      CLEAR     72  64  76 SE6       29.99F
MANITOWOC      CLEAR     72  64  76 MISG      30.01F
APPLETON       MOCLDY    79  61  53 VRB6      30.00F HX  80
CLINTONVILLE   MOCLDY    75  63  64 CALM      30.01R
OSHKOSH        MOCLDY    77  62  59 SE7       29.99S
$$

WIZ032>034-041-042-053>061-280300-
SOUTHWEST WISCONSIN

CITY           SKY/WX    TMP DP  RH WIND       PRES   REMARKS
LA CROSSE      PTCLDY    80  69  69 SE6       29.93S HX  83
SPARTA         PTCLDY    77  67  71 CALM      29.97S
VIROQUA        PTCLDY    75  69  81 SE5       29.98S
BOSCOBEL       PTCLDY    77  71  82 CALM      29.96S
PRAIRIE DU CHI DRIZZLE   77  70  78 CALM      29.95R
PLATTEVILLE    MOCLDY    77  72  83 SE5       29.98R
$$

WIZ056-057-062-063-064-067-068-280300-
SOUTH CENTRAL WISCONSIN

CITY           SKY/WX    TMP DP  RH WIND       PRES   REMARKS
REEDSBURG      PTCLDY    76  68  75 CALM      29.98R
BARABOO/DELLS  PTCLDY    75  64  67 E5        29.99R
LONE ROCK      MOCLDY    75  69  81 E6        29.98R
MINERAL POINT  MOCLDY    79  72  78 E3        29.99S HX  82
MADISON        MOCLDY    78  64  61 SE8       29.98S HX  80
MIDDLETON      MOCLDY    78  62  58 SE9       30.00R HX  80
WATERTOWN      MOCLDY    73  64  71 SE3       29.99R
MONROE         MOCLDY    75  64  69 E6        30.00R
JANESVILLE     CLEAR     77  64  65 SE3       29.99R
$$

WIZ051-052-058>065-066-070>072-280300-
SOUTHEAST WISCONSIN

CITY           SKY/WX    TMP DP  RH WIND       PRES   REMARKS
MILWAUKEE      MOCLDY    73  66  78 NE3       30.01S
WAUKESHA       NOT AVBL
MILWAUKEE/TIMM CLEAR     75  61  60 CALM      30.02S
RACINE         MOCLDY    73  66  78 CALM      30.02S
BURLINGTON     MOCLDY    69  63  80 E3        30.01R
KENOSHA        MOCLDY    69  62  78 E5        30.01S
FOND DU LAC    PTCLDY    75  62  64 SE8       30.00R
SHEBOYGAN      CLEAR     66  61  84 E3        30.01F
WEST BEND      PTCLDY    70  63  78 CALM      30.02S
JUNEAU           N/A     72  64  75 E7        30.01S
$$

LSZ147-162-280300-
LAKE SUPERIOR

STATION/POSITION TIME  TEMP    WIND        PRES    WAVE
                       AIR SEA DIR/SP/G            HT/PER
                 (UTC) (F)     (DEG/KT/KT) (MB)    (FT/S)
W MID LAKE BUOY  0150   65 63  110/  6/  6 1014.2R   0
DEVILS ISLAND    0200   74     110/ 12/ 13 1013.7S
PORT WING        0140   82     160/  3/  5 1013.5R
SAXON HARBOR     0100   76                 1013.5S
$$

LMZ867-665-643>646-280300-
LAKE MICHIGAN

STATION/POSITION TIME  TEMP    WIND        PRES    WAVE
                       AIR SEA DIR/SP/G            HT/PER
                 (UTC) (F)     (DEG/KT/KT) (MB)    (FT/S)
CHAMBERS ISLAND  0100   76     160/  1/  2 1015.6R
S GREEN BAY BUOY 0100   81 77  180/  8/ 10 1017.2
N MID LAKE BUOY  0150   73 70  230/  6/  6 1016.0R   0
NORTHPORT PIER   0100   78     200/  2/  3 1015.9R
SISTER BAY       0114   79        CALM       N/A
ALGOMA LAKESHORE 0112             CALM       N/A
KEWAUNEE LAKESHO 0200   69     160/  2/  3 1015.9R
SHEBOYGAN LAKESH 0200   74      90/  3/  3 1016.3F
PORT WASHINGTON  0100   76      40/  1/  3 1016.6S
ATWATER BUOY     0200   72     300/  2/  2 1017.6R
MILWAUKEE LAKESH 0100   74      30/  4/  4   N/A
KENOSHA   LAKESH 0200   74      40/  5/  6 1015.6S
$$

TC  - TEMPERATURE IN CELSIUS
VSB - VISIBILITY IN STATUTE MILES
WCI - WIND CHILL INDEX
HX  - HEAT INDEX



USA.gov is the U.S. government's official web portal to all federal, state and local government web resources and services.